Misión y Visión

La misión es proporcionar información fiable a la navegación aérea, contribuyendo a la seguridad, regularidad y eficiencia de la Navegación Aérea Internacional

La visión es contribuir sustancialmente al desarrollo de conocimientos y a la utilización de la meteorología aeronáutica a nivel nacional e internacional, mediante la innovación y la coparticipación con sectores sociales y productivos de la sociedad.

 
  Inicio
  Metar
  Taf
  Wintemp
  SIGMET
  Avisos
  Pronósticos
  Carpeta Meteorologica
  Imágenes Satelitales
  Climatología Aeronáutica
   
  ¿Quienes Somos?
  Contacto
  Eventos
  Publicaciones
  Politica de la Calidad
Metar

 

 

DIRECCIONES PARA INFORMES NACIONALES E INTERNACIONALES
(Metar /Speci - TAF)

http://adds.aviationweather.gov/tafs/index.php

http://www.ogimet.com/metars.phtml

PRONÓSTICOS DE AERÓDROMO

Cuando sea necesario, el encabezamiento abreviado puede incluir un cuarto grupo consistente en tres letras para identificar los boletines demorados (RRA), corregidos (CCA) o enmendados (AAA). Los boletines adicionales demorados, corregidos o enmendados deben identificarse con las letras RRB, RRC, etc.; CCB, CCC,etc.;AAB, AAC,etc.

METAR

DIA: 27/11/2014

TOCUMEN INTL

MPTO

(M) 270100Z 00000KT 9999 SCT018 BKN090 27/24 Q1011 REDZ NOSIG

MARCOS A. GELABERT

MPMG

(M) 270000Z VRB02KT 9999 FEW016CB SCT090 27/23 Q1011 NOSIG RMK CB SW

DAVID

MPDA

(M) 270000Z 00000KT 9999 TS FEW018CB SCT090 Q1009 RMK TS SE-S

BOCAS DEL TORO

MPBO

(M) 270000Z 00000KT 9999 FEW016 BKN090 Q1013 RMK DSNT PCPN NE

CHANGUINOLA

MPCH

(M) 270000Z 32004KT 9999 FEW030 SCT090 27/24 Q1014

PANAMA PACIFICO

MPPA

(M) 270000Z 00000KT 9999 FEW020 Q1011

CHITRE

MPCE

(M)

SANTIAGO

MPSA

(M)

 ENRIQUE JIMENEZ

MPEJ

(M) 262300Z 05004KT 9999 FEW010 BKN080 27/24 Q1010

SCARLET MARTINEZ

MPSM

(M) 262300Z 00000KT 9000 VCSH FEW010 SCT018 28/24 Q1009 PCPN W/N

PENONOME

MPPN

(M) 262300Z 03005KT 9999 SCT020TCU BKN100 RMK TCU/PCPN DSNT S

EL PORVENIR

MPVR

(M) 262200Z 30010KT(E) 9999 SCT020CB BKN100 RMK CB/PCPN DSNT S

OBALDIA

MPOA

(M)

MIRAFLORES

MPMF

(M)

JAQUE

MPJE

(M)

WANUNKANDI

MPWN

(M)

 

CLIMATICAS

DIA: 26-11-2014

MPTO

  

PCPN (mm)

 

T° MAX

 

T° MIN

 

VIENTO MAX (KT)

 

HORA

 

VIENTO PREDOM (KT)

 

 

29.3

30.5

23.8

17015KT

0030Z

CALMO

 

  CLIMATICAS

DIA: 26-11-2014

MPMG

 

 

PCPN (mm)

T° MAX

T° MIN

VIENTO MAX (KT)

HORA

VIENTO PREDOM (KT)

 

32.3

31.0

      22.7

19012KT

0012Z

              ESE

 

 

 

METAR es el estándar internacional del formato del código utilizado para emitir informes de las observaciones meteorológicas en los aeródromos realizado periódicamente

El código SPECI es el nombre en código dado al METAR emitido en una rutina no programada especial, ocasionada por cambios en las condiciones meteorológicas. La sigla SPECI se traduce como Selección Especial del Reporte Meteorológico para la Aviación.

Es usado por los meteorologos, para ayudarse en los pronósticos del tiempo, y fundamentalmente por los pilotos de las aeronaves para conocer la meteorología de los aeropuertos de destino y actuar en consecuencia. Los reportes METAR usualmente vienen de los aeropuertos. Típicamente se emiten cada media hora o una hora (depende del aeródromo); sin embargo, si las condiciones cambian significativamente, pueden actualizarse con reportes llamados SPECI.

Continuamos, con los pronosticos de tendencia, esta parte esta al final del METAR, cuando no pone NOSIG, eso es lo que vamos a aprender a decodificar.

TREND - Es un pronostico que abarca un periodo de dos horas a contar desde el momento del informe y consiste en una exposicion concisa de los cambios esperados en las condiciones meteorologicas del aerodromo que se añade al final de un informe METAR o SPECI. El pronostico TREND indica cambios importantes con respecto a uno o mas de los elementos siguientes: viento en superficie, visibilidad, condiciones meteorologicas y nubes o visibilidad vertical. cuando no se prevea ningun cambio de este tipo se indicara "NOSIG"

Indicador de cambio BECMG- Se utiliza para describir cambios esperados de las condiciones meteorologicas que alcancen o rebasen determinados valores a ritmo regular o irregular TEMPO- Se utiliza para describir fluctuaciones temporales pronosticadas de aquellas condiciones meteorologicas que alcancen o rebasen determinados valores especificados y que duran menos de una hora en cada caso y, en su conjunto, menos de la mitad del periodo del pronostico durante el cual se espera que ocurran las fluctuaciones.

FM(desde)

TL(hasta)

AT(a las)

NSW - Indica la finalizacion de los fenomenos meteorologicos significativos, sustituyendo al grupo ww

NSC - Se aplica cuando no se preven nubes por debajo de la altura de referencia CAVOK, tampoco se preven CB y no se pueen usar CAVOK o SKC

NOSIG - Indica la ausencia de cambios significativos durante el periodo de pronostico

 

 

 

 
 















  Noticias AAC
  Directorio
  Contáctenos
  Historia
  Quejas y Sugerencias
  Etica y Transparencia

  Gestión SSP/SMS
  Seguridad Aérea
  Navegación Aérea
  Transporte Aéreo

  Tramites
  Áeronaves de Alquiler

  Meteorología
  I.S.F.P.A
  Notam
  Peligro Aviario
  AVSEC
  UPIA
  Permisos
 




DECLARACIÓN DE PRIVACIDAD